Location: Barrio de Canyet
(41.4665°N, 2.2381°E)
Time: 21:17:44
(UTC+00:00)

STARLINK-1187 - Pass Details

Date: 09 April 2020
Orbit: 374 x 385 km, 53.0° (Epoch: 31 May)

Event Time Altitude Azimuth Distance (km) Brightness Sun altitude
Rises 20:00:14 0° 311° (NW) 2,206 8.3 -17.5°
Reaches altitude 10° 20:02:19 10° 317° (NW) 1,356 6.7 -17.8°
Maximum altitude 20:05:15 48° 34° (NNE) 484 3.2 -18.3°
Enters shadow 20:05:18 48° 37° (NE) 484 3.2 -18.3°
